When you browse on this site, cookies collect data to enhance your experience and personalize the content and advertising you see.
Visit our Privacy Policy to learn more. By continuing to use the site, you agree to this use of cookies and data.
  • în România
  • Lista ţărilor
  • Pe 7 zile
  • Temperatura apei
  • Hartă satelitară
  • Meteo pe hartă
  • Widget-uri
  • user-avatar
    Intrare

    Meteo pe oră la Shesheno

    Astăzi, 23 Iulie, Marţi

    Timp Temperatura Precipitaţii Vânt Presiune Umiditate
    00:00 +16°C° 0 mm 1 m/s 752 mmHg 83%
    01:00 +16°C° 0 mm 1 m/s 752 mmHg 85%
    02:00 +15°C° 0 mm 1 m/s 752 mmHg 91%
    03:00 +15°C° 0 mm 1 m/s 752 mmHg 91%
    04:00 +15°C° 0 mm 1 m/s 751 mmHg 90%
    05:00 +15°C° 0 mm 1 m/s 751 mmHg 90%
    06:00 +18°C° 0 mm 1 m/s 751 mmHg 86%
    07:00 +18°C° 0 mm 2 m/s 751 mmHg 81%
    08:00 +20°C° 0 mm 2 m/s 751 mmHg 76%
    09:00 +21°C° 0.2 mm 2 m/s 751 mmHg 74%
    10:00 +22°C° 0.2 mm 3 m/s 751 mmHg 71%
    11:00 +24°C° 0.2 mm 3 m/s 751 mmHg 69%
    12:00 +24°C° 0.1 mm 3 m/s 751 mmHg 67%
    13:00 +24°C° 0.1 mm 3 m/s 751 mmHg 65%
    14:00 +24°C° 0.1 mm 3 m/s 751 mmHg 64%
    15:00 +24°C° 0.2 mm 3 m/s 751 mmHg 64%
    16:00 +24°C° 0.2 mm 3 m/s 751 mmHg 65%
    17:00 +25°C° 0.2 mm 2 m/s 751 mmHg 66%
    18:00 +23°C° 0.2 mm 2 m/s 751 mmHg 73%
    19:00 +20°C° 0.2 mm 2 m/s 751 mmHg 80%
    20:00 +19°C° 0.2 mm 1 m/s 751 mmHg 87%
    21:00 +18°C° 0 mm 1 m/s 751 mmHg 89%
    22:00 +16°C° 0 mm 1 m/s 751 mmHg 90%
    23:00 +15°C° 0 mm 1 m/s 752 mmHg 91%

    Mâine, 24 Iulie, Miercuri

    Timp Temperatura Precipitaţii Vânt Presiune Umiditate
    00:00 +15°C° 0 mm 1 m/s 752 mmHg 91%
    01:00 +15°C° 0 mm 1 m/s 752 mmHg 92%
    02:00 +14°C° 0 mm 1 m/s 752 mmHg 92%
    03:00 +14°C° 0 mm 1 m/s 752 mmHg 92%
    04:00 +15°C° 0 mm 1 m/s 752 mmHg 91%
    05:00 +15°C° 0 mm 1 m/s 752 mmHg 91%
    06:00 +16°C° 0 mm 2 m/s 752 mmHg 83%
    07:00 +17°C° 0 mm 2 m/s 752 mmHg 76%
    08:00 +19°C° 0 mm 2 m/s 752 mmHg 69%
    09:00 +20°C° 0 mm 3 m/s 753 mmHg 63%
    10:00 +22°C° 0 mm 3 m/s 753 mmHg 57%
    11:00 +23°C° 0 mm 4 m/s 753 mmHg 51%
    12:00 +23°C° 0 mm 4 m/s 753 mmHg 50%
    13:00 +23°C° 0 mm 5 m/s 753 mmHg 49%
    14:00 +25°C° 0 mm 5 m/s 753 mmHg 49%
    15:00 +23°C° 0 mm 5 m/s 753 mmHg 51%
    16:00 +23°C° 0 mm 4 m/s 753 mmHg 54%
    17:00 +22°C° 0 mm 4 m/s 753 mmHg 56%
    18:00 +21°C° 0 mm 3 m/s 753 mmHg 63%
    19:00 +19°C° 0 mm 2 m/s 753 mmHg 70%
    20:00 +19°C° 0 mm 1 m/s 753 mmHg 77%
    21:00 +18°C° 0 mm 1 m/s 753 mmHg 78%
    22:00 +18°C° 0 mm 1 m/s 753 mmHg 80%
    23:00 +16°C° 0 mm 1 m/s 753 mmHg 81%

    Poimâine, 25 Iulie, Joi

    Timp Temperatura Precipitaţii Vânt Presiune Umiditate
    00:00 +16°C° 0 mm 1 m/s 753 mmHg 84%
    01:00 +15°C° 0 mm 1 m/s 753 mmHg 87%
    02:00 +15°C° 0 mm 1 m/s 753 mmHg 89%
    03:00 +14°C° 0.1 mm 1 m/s 753 mmHg 91%
    04:00 +14°C° 0.1 mm 2 m/s 753 mmHg 92%
    05:00 +13°C° 0.1 mm 2 m/s 753 mmHg 93%
    06:00 +15°C° 0 mm 2 m/s 753 mmHg 87%
    07:00 +16°C° 0 mm 2 m/s 753 mmHg 80%
    08:00 +18°C° 0 mm 2 m/s 753 mmHg 74%
    09:00 +19°C° 0 mm 2 m/s 753 mmHg 69%
    10:00 +20°C° 0 mm 2 m/s 753 mmHg 64%
    11:00 +21°C° 0 mm 3 m/s 753 mmHg 59%
    12:00 +22°C° 0.1 mm 3 m/s 753 mmHg 61%
    13:00 +22°C° 0.1 mm 3 m/s 753 mmHg 63%
    14:00 +22°C° 0.1 mm 3 m/s 753 mmHg 65%
    15:00 +21°C° 0.1 mm 3 m/s 753 mmHg 72%
    16:00 +19°C° 0.1 mm 3 m/s 753 mmHg 80%
    17:00 +18°C° 0.1 mm 2 m/s 753 mmHg 88%
    18:00 +17°C° 0 mm 2 m/s 753 mmHg 89%
    19:00 +17°C° 0 mm 2 m/s 753 mmHg 91%
    20:00 +17°C° 0 mm 2 m/s 753 mmHg 93%
    21:00 +16°C° 0 mm 2 m/s 753 mmHg 95%
    22:00 +15°C° 0 mm 2 m/s 754 mmHg 97%
    23:00 +15°C° 0 mm 2 m/s 754 mmHg 98%

    26 Iulie, Vineri

    Timp Temperatura Precipitaţii Vânt Presiune Umiditate
    00:00 +15°C° 0 mm 2 m/s 754 mmHg 99%
    01:00 +15°C° 0 mm 2 m/s 754 mmHg 99%
    02:00 +15°C° 0 mm 2 m/s 754 mmHg 99%
    03:00 +15°C° 0 mm 2 m/s 755 mmHg 99%
    04:00 +16°C° 0 mm 2 m/s 755 mmHg 99%
    05:00 +16°C° 0 mm 2 m/s 755 mmHg 98%
    06:00 +17°C° 0 mm 2 m/s 755 mmHg 93%
    07:00 +19°C° 0 mm 3 m/s 755 mmHg 88%
    08:00 +20°C° 0 mm 3 m/s 755 mmHg 83%
    09:00 +22°C° 0 mm 3 m/s 756 mmHg 76%
    10:00 +24°C° 0 mm 3 m/s 756 mmHg 69%
    11:00 +26°C° 0 mm 3 m/s 756 mmHg 62%
    12:00 +27°C° 0.2 mm 3 m/s 756 mmHg 61%
    13:00 +27°C° 0.2 mm 3 m/s 755 mmHg 60%
    14:00 +28°C° 0.2 mm 3 m/s 755 mmHg 59%
    15:00 +28°C° 0.4 mm 3 m/s 755 mmHg 67%
    16:00 +27°C° 0.4 mm 2 m/s 755 mmHg 74%
    17:00 +27°C° 0.4 mm 2 m/s 755 mmHg 82%
    18:00 +25°C° 0.3 mm 2 m/s 755 mmHg 86%
    19:00 +23°C° 0.3 mm 2 m/s 755 mmHg 90%
    20:00 +21°C° 0.3 mm 2 m/s 755 mmHg 94%
    21:00 +20°C° 0 mm 2 m/s 755 mmHg 95%
    22:00 +20°C° 0 mm 2 m/s 755 mmHg 96%
    23:00 +19°C° 0 mm 2 m/s 755 mmHg 97%

    27 Iulie, Sâmbătă

    Timp Temperatura Precipitaţii Vânt Presiune Umiditate
    00:00 +19°C° 0 mm 2 m/s 755 mmHg 97%
    01:00 +18°C° 0 mm 2 m/s 755 mmHg 97%
    02:00 +18°C° 0 mm 2 m/s 755 mmHg 97%
    03:00 +18°C° 0 mm 2 m/s 755 mmHg 97%
    04:00 +18°C° 0 mm 2 m/s 755 mmHg 97%
    05:00 +18°C° 0 mm 2 m/s 755 mmHg 97%
    06:00 +19°C° 0 mm 2 m/s 755 mmHg 93%
    07:00 +20°C° 0 mm 3 m/s 755 mmHg 88%
    08:00 +22°C° 0 mm 3 m/s 754 mmHg 84%
    09:00 +25°C° 0 mm 3 m/s 754 mmHg 74%
    10:00 +27°C° 0 mm 3 m/s 754 mmHg 63%
    11:00 +29°C° 0 mm 4 m/s 754 mmHg 53%
    12:00 +29°C° 0 mm 4 m/s 754 mmHg 51%
    13:00 +29°C° 0 mm 4 m/s 753 mmHg 50%
    14:00 +30°C° 0 mm 4 m/s 753 mmHg 48%
    15:00 +29°C° 0 mm 3 m/s 753 mmHg 55%
    16:00 +28°C° 0 mm 3 m/s 752 mmHg 61%
    17:00 +27°C° 0 mm 2 m/s 752 mmHg 67%
    18:00 +26°C° 0.1 mm 2 m/s 752 mmHg 73%
    19:00 +24°C° 0.1 mm 2 m/s 752 mmHg 79%
    20:00 +23°C° 0.1 mm 2 m/s 752 mmHg 85%
    21:00 +21°C° 0 mm 2 m/s 752 mmHg 86%
    22:00 +20°C° 0 mm 2 m/s 752 mmHg 88%
    23:00 +20°C° 0 mm 2 m/s 752 mmHg 90%

    28 Iulie, Duminică

    Timp Temperatura Precipitaţii Vânt Presiune Umiditate
    00:00 +19°C° 0 mm 2 m/s 752 mmHg 91%
    01:00 +19°C° 0 mm 2 m/s 752 mmHg 93%
    02:00 +18°C° 0 mm 2 m/s 752 mmHg 95%
    03:00 +18°C° 0 mm 3 m/s 752 mmHg 94%
    04:00 +18°C° 0 mm 3 m/s 752 mmHg 93%
    05:00 +17°C° 0 mm 3 m/s 752 mmHg 92%
    06:00 +18°C° 0 mm 4 m/s 752 mmHg 85%
    07:00 +18°C° 0 mm 4 m/s 752 mmHg 78%
    08:00 +18°C° 0 mm 4 m/s 752 mmHg 70%
    09:00 +19°C° 0 mm 4 m/s 753 mmHg 66%
    10:00 +19°C° 0 mm 4 m/s 753 mmHg 63%
    11:00 +20°C° 0 mm 4 m/s 753 mmHg 59%
    12:00 +21°C° 0 mm 4 m/s 753 mmHg 55%
    13:00 +21°C° 0 mm 4 m/s 752 mmHg 51%
    14:00 +21°C° 0 mm 4 m/s 752 mmHg 47%
    15:00 +21°C° 0 mm 4 m/s 752 mmHg 48%
    16:00 +20°C° 0 mm 4 m/s 752 mmHg 49%
    17:00 +19°C° 0 mm 4 m/s 752 mmHg 50%
    18:00 +18°C° 0 mm 4 m/s 752 mmHg 58%
    19:00 +16°C° 0 mm 3 m/s 752 mmHg 65%
    20:00 +14°C° 0 mm 2 m/s 753 mmHg 72%
    21:00 +12°C° 0 mm 3 m/s 753 mmHg 73%
    22:00 +12°C° 0 mm 3 m/s 753 mmHg 73%
    23:00 +11°C° 0 mm 3 m/s 754 mmHg 74%
    Arată mai mult